Location: Newark
(16.3678°N, 77.8722°E)
Time: 07:56:07
(UTC+00:00)

S-56A Canister/Altair - Pass Details

Date: 17 December 2019
Orbit: 634 x 2498 km, 38.9° (Epoch: 20 January)

Event Time Altitude Azimuth Distance (km) Brightness Sun altitude
Rises 06:21:42 0° 304° (NW) 5,880 11.8 49.9°
Reaches altitude 10° 06:26:15 10° 314° (NW) 5,028 11.5 50.0°
Maximum altitude 06:38:45 31° 11° (NNE) 3,703 10.9 50.3°
Drops below altitude 10° 06:50:41 10° 68° (ENE) 4,820 11.5 50.3°
Sets 06:54:54 0° 79° (E) 5,612 11.8 50.2°
